Home > Weather > Udon Thani > Past weeks

Flag for Thailand Weather for the Past 2 Weeks in Udon Thani, Thailand

Now
86 °F

Passing clouds.


Feels Like: 93 °F
Forecast: 82 / 102 °F
Wind: 8 mph from East

Location: Udon Thani Airport

Current Time: May 4, 2016 at 12:08:21 PM

Latest Report: May 4, 2016 at 11:00 AM


Visibility: N/A

Pressure: 29.89 "Hg

Humidity: 66%

Dew Point: 73 °F

Location of Udon ThaniLocation

Historic Weather in Udon Thani — Graph

°F

Udon Thani Temperature Yesterday

Maximum temperature yesterday: 99 °F (at 2:00 PM)
Minimum temperature yesterday: 75 °F (at 5:00 AM)
Average temperature yesterday: 86 °F

High & Low Weather Summary for the Past Weeks

 TemperatureHumidityPressure
High104 °F (Apr 26, 2:00 PM)100% (May 1, 4:00 AM)29.98 "Hg (May 1, 4:00 AM)
Low75 °F (Apr 21, 6:00 AM)29% (Apr 26, 5:00 PM)29.59 "Hg (Apr 23, 4:00 PM)
Average89 °F59%29.76 "Hg
* Reported Apr 19 10:00 AM — May 4 10:00 AM, Udon Thani, Weather by CustomWeather, © 2016

Note: Actual official high and low records may vary slightly from our data, if they occured in-between our weather recording intervals... More about our weather records

Advertising

Udon Thani Weather History for the Previous 24 Hours

Scroll right to see more
 ConditionsComfort  
Time TempWeatherWind HumidityBarometerVisibility
10:00 AM
Wed, May 4
82 °FPassing clouds.9 mph74%29.92 "HgN/A
9:00 AM79 °FPassing clouds.9 mph84%29.92 "HgN/A
8:00 AM75 °FPartly sunny.5 mph94%29.92 "Hg4 mi
7:00 AM75 °FThunderstorms. Cloudy.2 mph94%29.89 "Hg2 mi
6:00 AM79 °FScattered showers. Broken clouds.13 mph79%29.86 "Hg4 mi
4:00 AM79 °FClear.2 mph79%29.77 "Hg10 mi
1:00 AM81 °FPassing clouds.6 mph74%29.80 "Hg4 mi
10:00 PM
Tue, May 3
82 °FClear.No wind66%29.83 "Hg4 mi
9:00 PM84 °FPassing clouds.No wind62%29.80 "Hg4 mi
8:00 PM86 °FPassing clouds.8 mph55%29.77 "Hg5 mi
7:00 PM88 °FPartly cloudy.7 mph55%29.77 "Hg5 mi
6:00 PM91 °FPassing clouds.9 mph56%29.71 "Hg5 mi
5:00 PM95 °FScattered clouds.3 mph47%29.68 "HgN/A
3:00 PM97 °FScattered clouds.5 mph44%29.71 "HgN/A
2:00 PM99 °FPassing clouds.6 mph42%29.77 "HgN/A
1:00 PM95 °FPassing clouds.5 mph50%29.80 "HgN/A
12:00 PM95 °FPassing clouds.7 mph50%29.83 "HgN/A
Weather by CustomWeather, © 2016

See weather overviewHow to use our weather pages